THEMIS E

Last updated on Mon Nov 03 2025 00:02:46 GMT+0000 (Coordinated Universal Time)

1 30798U 07004E 25306.45472926 .00000066 00000+0 00000+0 0 9993 2 30798 1.8268 108.4501 8398140 178.8835 289.8965 0.87837747 63924
UTC large
Height (km)
Speed (km/s)
/
Latitude / Longitude
Inclination (degrees)
Orbital Period (minutes)
Azimuth
Elevation
Range (km)
Doppler Factor

Next 0 passes for location: London (51.5072 / 0.1276)

Sorry there are no passes over London.